Flag for Canada

Past Weather in Cambridge, Ontario, Canada — Yesterday and Last 2 Weeks

Now
41 °F

Overcast.


Feels Like: 41 °F
Forecast: 60 / 35 °F
Wind: 2 mph from North

Location: Waterloo Well
Current Time: Sep 20, 2020 at 1:01:20 am
Latest Report: Sep 20, 2020 at 12:00 am
Visibility: 9 mi
Pressure30.45 "Hg
Humidity: 93%
Dew Point: 39 °F
Location of CambridgeLocation

Past Weather in Cambridge — Graph

°F

Cambridge Temperature Yesterday

Maximum temperature yesterday: 59 °F (at 2:00 pm)
Minimum temperature yesterday: 28 °F (at 4:00 am)
Average temperature yesterday: 43 °F

High & Low Weather Summary for the Past Weeks

 TemperatureHumidityPressure
High73 °F (Sep 7, 3:13 pm)100% (Sep 5, 10:00 pm)30.46 "Hg (Sep 5, 10:00 pm)
Low28 °F (Sep 19, 4:00 am)31% (Sep 19, 4:00 pm)29.75 "Hg (Sep 7, 4:23 am)
Average56 °F83%30.17 "Hg
* Reported Sep 5 12:00 am — Sep 20 12:00 am, Cambridge. Weather by CustomWeather, © 2020

Note: Actual official high and low records may vary slightly from our data, if they occured in-between our weather recording intervals... More about our weather records

Cambridge Weather History for the Previous 24 Hours

Scroll right to see more
 ConditionsComfort  
Time TempWeatherWind HumidityBarometerVisibility
12:00 am
Sun, Sep 20
41 °FOvercast.2 mph93%30.45 "Hg9 mi
11:00 pm
Sat, Sep 19
43 °FMostly cloudy.2 mph81%30.44 "Hg9 mi
10:00 pm41 °FOvercast.3 mph81%30.43 "Hg9 mi
9:00 pm43 °FClear.2 mph71%30.42 "Hg9 mi
8:00 pm45 °FClear.6 mph61%30.42 "Hg9 mi
7:00 pm52 °FSunny.13 mph50%30.40 "Hg9 mi
6:00 pm57 °FSunny.9 mph41%30.40 "Hg9 mi
5:00 pm59 °FSunny.2 mph34%30.39 "Hg9 mi
4:00 pm59 °FSunny.3 mph31%30.40 "Hg9 mi
3:00 pm57 °FSunny.7 mph36%30.41 "Hg9 mi
2:00 pm59 °FSunny.10 mph34%30.43 "Hg9 mi
1:00 pm55 °FSunny.3 mph36%30.45 "Hg9 mi
12:00 pm54 °FSunny.3 mph35%30.46 "Hg9 mi
11:00 am54 °FSunny.5 mph35%30.46 "Hg9 mi
10:00 am48 °FSunny.2 mph54%30.46 "Hg9 mi
9:00 am39 °FSunny.2 mph81%30.45 "Hg9 mi
8:00 am32 °FSunny.3 mph93%30.45 "Hg9 mi
7:00 am30 °FClear.5 mph93%30.44 "Hg9 mi
6:00 am28 °FClear.2 mph100%30.42 "Hg9 mi
5:00 am28 °FClear.2 mph100%30.41 "Hg9 mi
4:21 am30 °FClear.2 mph93%30.41 "Hg9 mi
4:00 am28 °FClear.No wind100%30.41 "Hg9 mi
3:00 am30 °FClear.5 mph93%30.41 "Hg9 mi
2:00 am32 °FClear.5 mph93%30.40 "Hg9 mi
1:00 am32 °FClear.3 mph93%30.40 "Hg9 mi
Weather by CustomWeather, © 2020

See weather overview